FW7535 Weather Reports


Display with metric or nautical units.
time (UTC)temp
F
wind
direction
speed
MPH
gust
MPH
rain 1hr
in
rain 24hr
in
rain mn
in
humidity
%
barometer
mb
20220808063005 82 200 1.0 4.0 0.00 0.00 0.00 76 1008.1
20220808062005 82 142 0.0 4.0 0.00 0.00 0.00 76 1008.0
20220808061004 82 203 2.0 4.0 0.00 0.00 0.00 75 1008.0
20220808060005 82 210 1.0 5.0 0.00 0.00 0.00 75 1007.9
20220808055004 82 172 0.0 4.0 0.00 0.00 0.00 74 1007.9
20220808054005 83 227 2.0 4.0 0.00 0.00 0.00 73 1008.0
20220808053005 83 186 1.0 3.0 0.00 0.00 0.00 72 1007.9
20220808052004 83 148 1.0 3.0 0.00 0.00 0.00 72 1007.7
20220808051005 83 304 2.0 8.0 0.00 0.00 0.00 71 1007.5
20220808050007 84 103 4.0 6.0 0.00 0.00 0.00 71 1007.5
20220808045004 84 215 3.0 6.0 0.00 0.00 0.00 70 1007.4
20220808044005 84 136 2.0 4.0 0.00 0.00 0.00 70 1007.5
20220808043004 84 203 0.0 5.0 0.00 0.00 0.00 69 1007.4
20220808042005 84 117 2.0 6.0 0.00 0.00 0.00 69 1007.3
20220808041005 84 217 1.0 4.0 0.00 0.00 0.00 68 1007.2
20220808040005 85 155 5.0 7.0 0.00 0.00 0.00 68 1007.3
20220808035005 85 118 1.0 7.0 0.00 0.00 0.00 67 1007.2
20220808034004 85 96 2.0 5.0 0.00 0.00 0.00 67 1007.2
20220808033005 85 105 8.0 11.0 0.00 0.00 0.00 67 1007.2
20220808032006 86 140 2.0 9.0 0.00 0.00 0.00 66 1007.1
20220808031010 86 224 4.0 8.0 0.00 0.00 0.00 65 1007.0
20220808030005 86 146 0.0 7.0 0.00 0.00 0.00 65 1006.9
20220808025005 86 110 4.0 6.0 0.00 0.00 0.00 64 1006.9
20220808024005 86 211 5.0 9.0 0.00 0.00 0.00 64 1006.8
20220808023005 87 155 1.0 6.0 0.00 0.00 0.00 64 1006.7
20220808022005 87 189 2.0 8.0 0.00 0.00 0.00 63 1006.5
20220808021005 87 169 2.0 5.0 0.00 0.00 0.00 63 1006.5
20220808020005 87 201 1.0 6.0 0.00 0.00 0.00 62 1006.4
20220808015005 87 185 2.0 8.0 0.00 0.00 0.00 62 1006.4
20220808014008 88 190 2.0 6.0 0.00 0.00 0.00 60 1006.3
20220808013005 88 304 0.0 7.0 0.00 0.00 0.00 59 1006.2
20220808012005 88 127 0.0 8.0 0.00 0.00 0.00 58 1006.2
20220808011005 89 123 2.0 6.0 0.00 0.00 0.00 57 1005.9
20220808010004 89 63 3.0 7.0 0.00 0.00 0.00 56 1005.7
20220808005004 90 137 5.0 6.0 0.00 0.00 0.00 57 1005.6
20220808004004 90 142 6.0 6.0 0.00 0.00 0.00 56 1005.5
20220808003004 91 211 1.0 5.0 0.00 0.00 0.00 55 1005.7
20220808002004 91 136 3.0 9.0 0.00 0.00 0.00 54 1005.7
20220808001004 91 144 1.0 11.0 0.00 0.00 0.00 53 1005.6
20220808000009 92 146 3.0 10.0 0.00 0.00 0.00 51 1005.6
20220807235004 92 127 2.0 8.0 0.00 0.00 0.00 49 1005.5
20220807234004 93 146 3.0 8.0 0.00 0.00 0.00 47 1005.4
20220807233005 93 205 1.0 6.0 0.00 0.00 0.00 47 1005.5
20220807232004 93 98 4.0 11.0 0.00 0.00 0.00 49 1005.4
20220807231004 94 149 2.0 10.0 0.00 0.00 0.00 49 1005.4
20220807230006 94 174 2.0 14.0 0.00 0.00 0.00 47 1005.3
20220807225005 96 168 4.0 13.0 0.00 0.00 0.00 45 1005.1
20220807224004 96 172 5.0 6.0 0.00 0.00 0.00 44 1005.1
20220807223005 96 181 1.0 8.0 0.00 0.00 0.00 45 1005.2
20220807222004 98 144 3.0 7.0 0.00 0.00 0.00 43 1005.3
20220807221004 98 76 4.0 10.0 0.00 0.00 0.00 42 1005.3
20220807220005 100 181 1.0 7.0 0.00 0.00 0.00 41 1005.5
20220807215004 100 193 1.0 7.0 0.00 0.00 0.00 41 1005.3
20220807214004 100 191 3.0 9.0 0.00 0.00 0.00 41 1005.3
20220807213004 100 97 2.0 6.0 0.00 0.00 0.00 42 1005.3
20220807212004 99 160 4.0 6.0 0.00 0.00 0.00 42 1005.5
20220807211004 98 89 4.0 8.0 0.00 0.00 0.00 43 1005.7
20220807210005 100 108 2.0 7.0 0.00 0.00 0.00 41 1005.9
20220807205004 99 137 4.0 7.0 0.00 0.00 0.00 44 1006.0
20220807204004 99 102 1.0 5.0 0.00 0.00 0.00 43 1006.2
20220807203004 101 139 2.0 8.0 0.00 0.00 0.00 38 1006.2
20220807202005 102 119 1.0 8.0 0.00 0.00 0.00 37 1006.3
20220807201005 101 70 1.0 7.0 0.00 0.00 0.00 38 1006.5
20220807200006 101 199 3.0 9.0 0.00 0.00 0.00 37 1006.7
20220807195005 100 190 1.0 8.0 0.00 0.00 0.00 38 1006.8
20220807194004 99 230 1.0 6.0 0.00 0.00 0.00 39 1006.9
20220807193005 100 103 2.0 7.0 0.00 0.00 0.00 38 1007.1
20220807192005 98 146 0.0 9.0 0.00 0.00 0.00 40 1007.3
20220807191005 98 171 1.0 9.0 0.00 0.00 0.00 40 1007.3
20220807190009 99 156 1.0 6.0 0.00 0.00 0.00 40 1007.6
20220807185005 98 137 2.0 8.0 0.00 0.00 0.00 42 1007.7
20220807184004 98 148 1.0 7.0 0.00 0.00 0.00 42 1007.8
20220807183005 98 225 3.0 12.0 0.00 0.00 0.00 43 1008.0
20220807182005 97 183 2.0 8.0 0.00 0.00 0.00 44 1008.1
20220807181005 95 143 3.0 8.0 0.00 0.00 0.00 45 1008.4
20220807180006 96 169 2.0 7.0 0.00 0.00 0.00 46 1008.6
20220807175005 95 108 4.0 11.0 0.00 0.00 0.00 48 1008.7
20220807174005 96 113 1.0 6.0 0.00 0.00 0.00 46 1008.9
20220807173005 95 88 2.0 8.0 0.00 0.00 0.00 48 1009.1
20220807172005 94 141 2.0 4.0 0.00 0.00 0.00 49 1009.2
20220807171005 94 125 2.0 6.0 0.00 0.00 0.00 50 1009.3
20220807170005 92 245 3.0 7.0 0.00 0.00 0.00 52 1009.4
20220807165005 93 158 2.0 9.0 0.00 0.00 0.00 52 1009.6
20220807164005 92 193 1.0 7.0 0.00 0.00 0.00 54 1009.7
20220807163004 91 110 2.0 7.0 0.00 0.00 0.00 56 1009.7
20220807162005 91 94 2.0 7.0 0.00 0.00 0.00 55 1009.7
20220807161005 90 287 0.0 8.0 0.00 0.00 0.00 57 1009.8
20220807160005 90 224 3.0 7.0 0.00 0.00 0.00 56 1009.9
20220807155005 88 193 0.0 8.0 0.00 0.00 0.00 59 1009.8
20220807154005 89 302 5.0 8.0 0.00 0.00 0.00 60 1009.7
20220807153005 89 179 2.0 6.0 0.00 0.00 0.00 62 1009.8
20220807152005 88 162 3.0 8.0 0.00 0.00 0.00 64 1009.6
20220807151004 87 283 0.0 8.0 0.00 0.00 0.00 70 1009.7
20220807150004 85 157 0.0 5.0 0.00 0.00 0.00 73 1009.6
20220807145004 85 229 0.0 4.0 0.00 0.00 0.00 75 1009.7
20220807144009 84 158 1.0 6.0 0.00 0.00 0.00 77 1009.9
20220807143004 81 271 3.0 6.0 0.00 0.00 0.00 82 1009.7
20220807142004 81 191 2.0 7.0 0.00 0.00 0.00 82 1009.7
20220807141004 81 145 1.0 7.0 0.00 0.00 0.00 83 1009.7
20220807140005 82 122 1.0 6.0 0.00 0.00 0.00 82 1009.7
20220807135004 81 141 0.0 4.0 0.00 0.00 0.00 84 1009.6
20220807134004 80 141 0.0 0.0 0.00 0.00 0.00 86 1009.5
20220807133004 80 190 0.0 5.0 0.00 0.00 0.00 86 1009.5
20220807132005 80 181 0.0 3.0 0.00 0.00 0.00 87 1009.4
20220807131005 79 134 0.0 3.0 0.00 0.00 0.00 88 1009.3
20220807130005 79 239 0.0 3.0 0.00 0.00 0.00 88 1009.1
20220807125005 79 226 0.0 1.0 0.00 0.00 0.00 88 1009.0
20220807124004 78 153 0.0 2.0 0.00 0.00 0.00 89 1008.9
20220807123009 78 177 1.0 2.0 0.00 0.00 0.00 89 1008.8
20220807122005 78 220 0.0 3.0 0.00 0.00 0.00 89 1008.8
20220807121005 78 161 2.0 3.0 0.00 0.00 0.00 89 1008.7
20220807120005 78 110 1.0 3.0 0.00 0.00 0.00 89 1008.5
20220807115005 78 117 1.0 5.0 0.00 0.00 0.00 89 1008.4
20220807114005 78 132 0.0 2.0 0.00 0.00 0.00 89 1008.2
20220807113005 78 115 1.0 3.0 0.00 0.00 0.00 89 1008.1
20220807112005 78 161 0.0 4.0 0.00 0.00 0.00 89 1008.0
20220807111005 78 154 0.0 5.0 0.00 0.00 0.00 88 1007.8
20220807110006 78 129 0.0 5.0 0.00 0.00 0.00 88 1007.8
20220807105005 78 243 1.0 5.0 0.00 0.00 0.00 88 1007.7
20220807104005 78 171 1.0 4.0 0.00 0.00 0.00 88 1007.6
20220807103005 78 146 2.0 7.0 0.00 0.00 0.00 87 1007.7
20220807102004 78 221 1.0 5.0 0.00 0.00 0.00 87 1007.7
20220807101005 78 158 1.0 9.0 0.00 0.00 0.00 87 1007.6
20220807100005 78 356 0.0 4.0 0.00 0.00 0.00 87 1007.5
20220807095005 78 224 0.0 5.0 0.00 0.00 0.00 87 1007.6
20220807094009 78 257 2.0 7.0 0.00 0.00 0.00 86 1007.6
20220807093005 79 245 2.0 7.0 0.00 0.00 0.00 86 1007.8
20220807092005 79 284 4.0 6.0 0.00 0.00 0.00 85 1007.8
20220807091005 79 200 0.0 5.0 0.00 0.00 0.00 86 1007.9
20220807090005 79 263 3.0 12.0 0.00 0.00 0.00 85 1007.8
20220807085005 79 245 0.0 5.0 0.00 0.00 0.00 85 1007.9
20220807084004 79 219 5.0 6.0 0.00 0.00 0.00 84 1008.0
20220807083005 79 195 1.0 6.0 0.00 0.00 0.00 84 1007.8
20220807082005 79 304 2.0 4.0 0.00 0.00 0.00 84 1007.9
20220807081004 79 120 0.0 5.0 0.00 0.00 0.00 84 1007.9
20220807080005 79 200 2.0 4.0 0.00 0.00 0.00 83 1007.9
20220807075005 79 142 5.0 5.0 0.00 0.00 0.00 83 1007.9
20220807074004 79 183 1.0 6.0 0.00 0.00 0.00 82 1007.9
20220807073005 79 129 3.0 5.0 0.00 0.00 0.00 82 1007.9
20220807072005 79 155 0.0 5.0 0.00 0.00 0.00 81 1007.9
20220807071005 79 122 1.0 5.0 0.00 0.00 0.00 80 1007.8
20220807070005 79 135 1.0 5.0 0.00 0.00 0.00 80 1007.7
20220807065010 80 155 1.0 7.0 0.00 0.00 0.00 79 1007.6
20220807064005 80 263 0.0 6.0 0.00 0.00 0.00 78 1007.6